This demonstration page uses our WeatherBlox Daily Observations layout. Learn more.

40.92945, -100.16068

Hourly Observations for June 4, 2015

Temp ( °F °C ) Dew Point ( °F °C ) Humidity (%) Winds ( mph kmh ) Pressure ( in mb ) Visibility ( mi km ) Precip ( " mm )
12:15 am 00:15 Mostly Cloudy 66 19 63 17 88 88 NE 5 7 29.88 1012 10 16.0934 N/A
12:35 am 00:35 Cloudy 67 19.2 63 17.1 88 88 ENE 6 9 29.88 1012 10 16.0934 N/A
12:55 am 00:55 Cloudy 67 19.2 63 17.2 88 88 ENE 5 7 29.88 1012 10 16.0934 N/A
1:15 am 01:15 Cloudy with Nearby Thunderstorms 67 19.5 63 17.3 87 87 E 8 13 29.85 1011 10 16.0934 N/A
1:35 am 01:35 Cloudy 67 19.7 63 17 85 85 E 15 24 29.83 1010 10 16.0934 N/A
1:55 am 01:55 Cloudy 67 19.7 61 16.3 81 81 E 14 22 29.83 1010 10 16.0934 N/A
2:15 am 02:15 Cloudy 68 19.8 63 17.2 85 85 E 14 22 29.83 1010 10 16.0934 N/A
2:35 am 02:35 Cloudy 67 19.5 63 17.3 87 87 E 9 15 29.83 1010 10 16.0934 N/A
2:55 am 02:55 Cloudy 66 19.1 64 17.5 91 91 E 8 13 29.83 1010 10 16.0934 N/A
3:15 am 03:15 Cloudy 66 19 64 17.5 91 91 ENE 8 13 29.83 1010 10 16.0934 N/A
3:35 am 03:35 Mostly Cloudy 65 18.6 64 17.5 93 93 E 8 13 29.83 1010 10 16.0934 N/A
3:55 am 03:55 Cloudy 65 18.5 64 17.5 94 94 ENE 8 13 29.83 1010 10 16.0934 N/A
4:15 am 04:15 Cloudy 65 18.6 64 17.6 94 94 E 10 17 29.83 1010 7 11.26538 N/A
4:35 am 04:35 Cloudy 66 18.7 64 17.7 94 94 ENE 7 11 29.83 1010 7 11.26538 N/A
4:55 am 04:55 Cloudy 66 18.7 64 17.7 94 94 ENE 8 13 29.83 1010 7 11.26538 N/A
5:15 am 05:15 Cloudy 66 18.7 64 17.7 94 94 ENE 9 15 29.83 1010 10 16.0934 N/A
5:35 am 05:35 Cloudy with Nearby Thunderstorms 66 18.7 64 17.6 93 93 ENE 7 11 29.88 1012 10 16.0934 N/A
5:55 am 05:55 Cloudy 66 18.9 64 17.7 93 93 Calm 29.91 1013 10 16.0934 N/A
6:15 am 06:15 Cloudy with Heavy Thunderstorms 66 18.8 64 17.7 93 93 ENE 6 9 29.88 1012 2 3.21868 0.24 6.096
6:35 am 06:35 Cloudy 66 18.7 64 17.8 95 95 E 12 19 29.83 1010 5 8.0467 0.26 6.604
6:55 am 06:55 Cloudy with Light Drizzle 65 18.6 64 17.8 95 95 ENE 9 15 29.83 1010 5 8.0467 0.26 6.604
7:15 am 07:15 Cloudy with Mist and Fog 65 18.5 64 17.7 95 95 ENE 13 20 29.8 1009 4 6.43736 N/A
7:35 am 07:35 Mostly Cloudy 65 18.2 64 17.5 96 96 NE 18 30 29.77 1008 7 11.26538 N/A
7:55 am 07:55 Partly Cloudy 65 18.2 63 17.4 95 95 E 14 22 29.8 1009 7 11.26538 N/A
8:15 am 08:15 Mostly Cloudy 65 18.2 64 17.5 96 96 SE 9 15 29.85 1011 10 16.0934 N/A
8:35 am 08:35 Mostly Cloudy 66 19 65 18.1 95 95 S 7 11 29.83 1010 10 16.0934 N/A
8:55 am 08:55 Partly Cloudy 67 19.2 65 18.2 94 94 Calm 29.83 1010 10 16.0934 N/A
9:15 am 09:15 Mostly Cloudy 67 19.5 65 18.5 94 94 NNE 7 11 29.83 1010 10 16.0934 N/A
9:35 am 09:35 Cloudy 67 19.2 65 18.1 93 93 NE 8 13 29.88 1012 10 16.0934 N/A
9:55 am 09:55 Cloudy 67 19.5 65 18.4 93 93 ENE 10 17 29.85 1011 10 16.0934 N/A
10:15 am 10:15 Cloudy 67 19.6 65 18.5 93 93 E 7 11 29.85 1011 10 16.0934 N/A
10:35 am 10:35 Cloudy 68 20 66 18.7 92 92 E 10 17 29.88 1012 10 16.0934 N/A
10:55 am 10:55 Cloudy 68 20 65 18.6 92 92 E 10 17 29.88 1012 7 11.26538 N/A
11:15 am 11:15 Cloudy 68 20.1 66 19 93 93 E 7 11 29.88 1012 7 11.26538 N/A
11:35 am 11:35 Cloudy 69 20.3 66 19.1 93 93 ENE 8 13 29.88 1012 10 16.0934 N/A
11:55 am 11:55 Cloudy 69 20.7 67 19.4 92 92 NE 7 11 29.91 1013 10 16.0934 0.01 0.254
12:15 pm 12:15 Cloudy 70 21 67 19.5 91 91 ENE 6 9 29.91 1013 10 16.0934 N/A
12:35 pm 12:35 Cloudy 71 21.6 68 20 91 91 NE 6 9 29.91 1013 10 16.0934 N/A
12:55 pm 12:55 Cloudy 71 21.7 68 19.9 90 90 NE 6 9 29.91 1013 10 16.0934 0 0
1:15 pm 13:15 Cloudy 71 21.6 68 19.9 90 90 E 8 13 29.91 1013 7 11.26538 N/A
1:35 pm 13:35 Cloudy with Mist and Fog 71 21.7 68 20.1 91 91 E 9 15 29.91 1013 5 8.0467 N/A
1:55 pm 13:55 Cloudy 72 22.3 69 20.5 90 90 E 12 19 29.91 1013 7 11.26538 N/A
2:15 pm 14:15 Mostly Cloudy 73 23 69 20.6 86 86 E 17 28 29.88 1012 10 16.0934 N/A
2:35 pm 14:35 Mostly Cloudy 74 23.2 69 20.7 86 86 E 17 28 29.88 1012 10 16.0934 N/A
2:55 pm 14:55 Cloudy with Mist and Fog 72 22.4 69 20.6 90 90 E 16 26 29.85 1011 5 8.0467 N/A
3:15 pm 15:15 Cloudy 72 22.1 68 20.1 88 88 E 13 20 29.88 1012 7 11.26538 N/A
3:35 pm 15:35 Cloudy 71 21.6 67 19.7 89 89 E 13 20 29.88 1012 7 11.26538 N/A
3:55 pm 15:55 Cloudy 70 21.3 67 19.6 90 90 ESE 14 22 29.91 1013 7 11.26538 N/A
4:15 pm 16:15 Cloudy 71 21.6 68 20 91 91 ESE 10 17 29.88 1012 7 11.26538 N/A
4:35 pm 16:35 Cloudy 72 22 68 19.9 88 88 ESE 15 24 29.85 1011 10 16.0934 N/A
4:55 pm 16:55 Cloudy 72 22 68 20 88 88 ESE 12 19 29.85 1011 10 16.0934 N/A
5:15 pm 17:15 Cloudy 72 22 68 19.9 88 88 ESE 9 15 29.88 1012 10 16.0934 N/A
5:35 pm 17:35 Cloudy 72 22.4 68 20.2 87 87 ESE 6 9 29.85 1011 10 16.0934 N/A
5:55 pm 17:55 Cloudy 73 22.5 68 20.2 87 87 ESE 6 9 29.83 1010 10 16.0934 N/A
6:15 pm 18:15 Cloudy 73 22.6 68 20.2 86 86 E 6 9 29.83 1010 10 16.0934 N/A
6:35 pm 18:35 Cloudy 73 23 69 20.5 86 86 E 6 9 29.83 1010 10 16.0934 N/A
6:55 pm 18:55 Cloudy 74 23.2 69 20.6 85 85 E 5 7 29.83 1010 10 16.0934 N/A
7:15 pm 19:15 Cloudy 74 23.3 69 20.5 84 84 E 6 9 29.88 1012 10 16.0934 N/A
7:35 pm 19:35 Cloudy 73 23 69 20.5 86 86 ENE 5 7 29.88 1012 10 16.0934 N/A
7:55 pm 19:55 Cloudy 73 23 69 20.6 86 86 ENE 7 11 29.88 1012 10 16.0934 N/A
8:15 pm 20:15 Cloudy 73 22.8 69 20.5 87 87 ENE 8 13 29.88 1012 10 16.0934 N/A
8:35 pm 20:35 Cloudy 73 22.7 69 20.5 87 87 NE 7 11 29.88 1012 10 16.0934 N/A
8:55 pm 20:55 Cloudy 72 22.3 68 20.2 88 88 NE 8 13 29.88 1012 10 16.0934 N/A
9:15 pm 21:15 Cloudy 72 22 68 20.1 89 89 NE 8 13 29.88 1012 10 16.0934 N/A
9:35 pm 21:35 Cloudy 71 21.8 68 20 90 90 ENE 8 13 29.88 1012 10 16.0934 N/A
9:55 pm 21:55 Cloudy 71 21.7 68 20 90 90 ENE 9 15 29.88 1012 10 16.0934 N/A
10:15 pm 22:15 Cloudy 71 21.7 68 20 90 90 ENE 8 13 29.88 1012 10 16.0934 N/A
10:35 pm 22:35 Cloudy 71 21.7 68 20 90 90 ENE 9 15 29.91 1013 10 16.0934 N/A
10:55 pm 22:55 Cloudy with Nearby Thunderstorms 71 21.6 68 19.9 90 90 ENE 15 24 29.91 1013 10 16.0934 N/A
11:15 pm 23:15 Cloudy 70 21 66 19.1 89 89 ENE 14 22 29.91 1013 10 16.0934 N/A
11:35 pm 23:35 Cloudy 69 20.5 66 19 91 91 E 13 20 29.91 1013 7 11.26538 N/A
11:55 pm 23:55 Cloudy with Nearby Thunderstorms 68 20.2 66 19 93 93 E 12 19 29.97 1015 10 16.0934 N/A

Powered by AerisWeather